OneWeb SL0650

operational
NORAD ID: 55813 Int'l Des: 2023-029 Owner: ONEWEBN Country: UK Constellation: oneweb
LEOCIRCULARPOLARONEWEB_TYPE

OneWeb SL0650について

説明を読み込み中...

リアルタイム位置

3D地球を読み込み中...

次回通過

高度履歴

Altitude vs Time

uPlot chart will show altitude changes over time

軌道要素

1 55813U 23029T 25354.52917533 .00000101 00000-0 21900-3 0 9999
2 55813 87.9197 340.5291 0001876 70.1022 290.0313 13.19724544135336
Epoch: Dec 20, 2025 • Age: 7 hours

現在のステータス

高度 1191.3 km
速度 7.26 km/s
衛星直下点 -13.82°S, 48.33°W
打ち上げ日 Mar 9, 2023
運用期間 2.7 years
タイプ internet

技術仕様

分類 Payload
質量 148.00 kg
乾燥質量 140.00 kg
総質量 148.00 kg
長さ 1.30 m
直径 1.00 m
スパン 5.00 m
形状 Trapezoid+2 pan
製造者 ONEWUS
バスタイプ ARROW
フェーズステータス In Orbit
所有者/国 ONEWEBN/UK

大規模コンステレーション

Loading constellations...